• în România
  • Lista ţărilor
  • Pe 7 zile
  • Temperatura apei
  • Hartă satelitară
  • Meteo pe hartă
  • Widget-uri
  • user-avatar
    Intrare

    Meteo pe oră la Saurimo

    Astăzi, 19 Iunie, Marţi

    Timp Temperatura Precipitaţii Vânt Presiune Umiditate
    00:00 +18°C° 0 mm 1 m/s 671 mmHg 48%
    01:00 +18°C° 0 mm 1 m/s 671 mmHg 49%
    02:00 +16°C° 0 mm 1 m/s 671 mmHg 51%
    03:00 +16°C° 0 mm 2 m/s 671 mmHg 52%
    04:00 +16°C° 0 mm 2 m/s 671 mmHg 53%
    05:00 +16°C° 0 mm 2 m/s 671 mmHg 52%
    06:00 +17°C° 0 mm 2 m/s 671 mmHg 51%
    07:00 +17°C° 0 mm 2 m/s 672 mmHg 50%
    08:00 +21°C° 0 mm 3 m/s 672 mmHg 42%
    09:00 +25°C° 0 mm 3 m/s 673 mmHg 35%
    10:00 +29°C° 0 mm 3 m/s 674 mmHg 27%
    11:00 +30°C° 0 mm 3 m/s 673 mmHg 24%
    12:00 +31°C° 0 mm 2 m/s 673 mmHg 21%
    13:00 +32°C° 0 mm 2 m/s 673 mmHg 18%
    14:00 +32°C° 0 mm 2 m/s 672 mmHg 18%
    15:00 +32°C° 0 mm 1 m/s 672 mmHg 18%
    16:00 +31°C° 0 mm 1 m/s 671 mmHg 19%
    17:00 +28°C° 0 mm 1 m/s 671 mmHg 23%
    18:00 +26°C° 0 mm 1 m/s 671 mmHg 27%
    19:00 +23°C° 0 mm 1 m/s 671 mmHg 32%
    20:00 +22°C° 0 mm 1 m/s 671 mmHg 34%
    21:00 +21°C° 0 mm 1 m/s 671 mmHg 35%
    22:00 +21°C° 0 mm 1 m/s 671 mmHg 37%
    23:00 +20°C° 0 mm 1 m/s 671 mmHg 39%

    Mâine, 20 Iunie, Miercuri

    Timp Temperatura Precipitaţii Vânt Presiune Umiditate
    00:00 +19°C° 0 mm 1 m/s 671 mmHg 40%
    01:00 +19°C° 0 mm 1 m/s 671 mmHg 42%
    02:00 +18°C° 0 mm 1 m/s 671 mmHg 43%
    03:00 +17°C° 0 mm 2 m/s 671 mmHg 44%
    04:00 +17°C° 0 mm 2 m/s 670 mmHg 45%
    05:00 +17°C° 0 mm 2 m/s 671 mmHg 44%
    06:00 +18°C° 0 mm 2 m/s 671 mmHg 43%
    07:00 +19°C° 0 mm 3 m/s 672 mmHg 42%
    08:00 +22°C° 0 mm 3 m/s 673 mmHg 36%
    09:00 +26°C° 0 mm 4 m/s 673 mmHg 30%
    10:00 +30°C° 0 mm 4 m/s 674 mmHg 23%
    11:00 +32°C° 0 mm 4 m/s 674 mmHg 22%
    12:00 +33°C° 0 mm 3 m/s 673 mmHg 20%
    13:00 +34°C° 0 mm 3 m/s 673 mmHg 18%
    14:00 +34°C° 0 mm 3 m/s 672 mmHg 18%
    15:00 +32°C° 0 mm 2 m/s 672 mmHg 19%
    16:00 +32°C° 0 mm 2 m/s 672 mmHg 19%
    17:00 +29°C° 0 mm 2 m/s 671 mmHg 23%
    18:00 +26°C° 0 mm 1 m/s 671 mmHg 28%
    19:00 +23°C° 0 mm 1 m/s 671 mmHg 32%
    20:00 +23°C° 0 mm 1 m/s 672 mmHg 33%
    21:00 +22°C° 0 mm 1 m/s 672 mmHg 35%
    22:00 +21°C° 0 mm 1 m/s 672 mmHg 36%
    23:00 +20°C° 0 mm 2 m/s 672 mmHg 37%

    Poimâine, 21 Iunie, Joi

    Timp Temperatura Precipitaţii Vânt Presiune Umiditate
    00:00 +19°C° 0 mm 2 m/s 672 mmHg 38%
    01:00 +18°C° 0 mm 2 m/s 672 mmHg 40%
    02:00 +18°C° 0 mm 2 m/s 671 mmHg 40%
    03:00 +17°C° 0 mm 2 m/s 671 mmHg 40%
    04:00 +17°C° 0 mm 2 m/s 671 mmHg 40%
    05:00 +17°C° 0 mm 2 m/s 672 mmHg 40%
    06:00 +18°C° 0 mm 2 m/s 672 mmHg 39%
    07:00 +18°C° 0 mm 2 m/s 673 mmHg 38%
    08:00 +22°C° 0 mm 3 m/s 673 mmHg 34%
    09:00 +26°C° 0 mm 3 m/s 674 mmHg 29%
    10:00 +30°C° 0 mm 3 m/s 675 mmHg 25%
    11:00 +31°C° 0 mm 3 m/s 674 mmHg 22%
    12:00 +32°C° 0 mm 2 m/s 674 mmHg 20%
    13:00 +35°C° 0 mm 2 m/s 673 mmHg 18%
    14:00 +34°C° 0 mm 2 m/s 673 mmHg 19%
    15:00 +34°C° 0 mm 2 m/s 672 mmHg 19%
    16:00 +33°C° 0 mm 1 m/s 672 mmHg 19%
    17:00 +30°C° 0 mm 1 m/s 672 mmHg 24%
    18:00 +27°C° 0 mm 1 m/s 672 mmHg 28%
    19:00 +24°C° 0 mm 1 m/s 672 mmHg 32%
    20:00 +24°C° 0 mm 1 m/s 672 mmHg 33%
    21:00 +23°C° 0 mm 1 m/s 673 mmHg 34%
    22:00 +23°C° 0 mm 1 m/s 673 mmHg 35%
    23:00 +23°C° 0 mm 1 m/s 673 mmHg 35%

    22 Iunie, Vineri

    Timp Temperatura Precipitaţii Vânt Presiune Umiditate
    00:00 +22°C° 0 mm 1 m/s 672 mmHg 35%
    01:00 +22°C° 0 mm 1 m/s 672 mmHg 35%
    02:00 +21°C° 0 mm 1 m/s 672 mmHg 37%
    03:00 +20°C° 0 mm 1 m/s 672 mmHg 38%
    04:00 +19°C° 0 mm 1 m/s 671 mmHg 40%
    05:00 +19°C° 0 mm 2 m/s 672 mmHg 40%
    06:00 +19°C° 0 mm 2 m/s 673 mmHg 40%
    07:00 +19°C° 0 mm 2 m/s 673 mmHg 40%
    08:00 +22°C° 0 mm 3 m/s 674 mmHg 34%
    09:00 +27°C° 0 mm 3 m/s 675 mmHg 29%
    10:00 +30°C° 0 mm 4 m/s 675 mmHg 23%
    11:00 +31°C° 0 mm 3 m/s 675 mmHg 22%
    12:00 +34°C° 0 mm 3 m/s 674 mmHg 21%
    13:00 +35°C° 0 mm 3 m/s 673 mmHg 19%
    14:00 +34°C° 0 mm 3 m/s 673 mmHg 21%
    15:00 +33°C° 0 mm 3 m/s 672 mmHg 23%
    16:00 +31°C° 0 mm 2 m/s 672 mmHg 24%
    17:00 +29°C° 0 mm 2 m/s 672 mmHg 27%
    18:00 +27°C° 0 mm 2 m/s 672 mmHg 30%
    19:00 +26°C° 0 mm 2 m/s 672 mmHg 32%
    20:00 +25°C° 0 mm 2 m/s 673 mmHg 33%
    21:00 +25°C° 0 mm 2 m/s 673 mmHg 35%
    22:00 +24°C° 0 mm 2 m/s 673 mmHg 36%
    23:00 +23°C° 0 mm 2 m/s 673 mmHg 37%

    23 Iunie, Sâmbătă

    Timp Temperatura Precipitaţii Vânt Presiune Umiditate
    00:00 +23°C° 0 mm 1 m/s 672 mmHg 38%
    01:00 +22°C° 0 mm 1 m/s 672 mmHg 40%
    02:00 +21°C° 0 mm 2 m/s 672 mmHg 40%
    03:00 +20°C° 0 mm 2 m/s 672 mmHg 41%
    04:00 +20°C° 0 mm 2 m/s 672 mmHg 41%
    05:00 +20°C° 0 mm 2 m/s 672 mmHg 40%
    06:00 +21°C° 0 mm 2 m/s 672 mmHg 40%
    07:00 +21°C° 0 mm 2 m/s 673 mmHg 39%
    08:00 +25°C° 0 mm 2 m/s 673 mmHg 34%
    09:00 +27°C° 0 mm 3 m/s 674 mmHg 28%
    10:00 +30°C° 0 mm 3 m/s 674 mmHg 23%
    11:00 +33°C° 0 mm 3 m/s 674 mmHg 22%
    12:00 +34°C° 0 mm 2 m/s 673 mmHg 20%
    13:00 +36°C° 0 mm 2 m/s 673 mmHg 18%
    14:00 +35°C° 0 mm 2 m/s 672 mmHg 19%
    15:00 +34°C° 0 mm 2 m/s 672 mmHg 20%
    16:00 +32°C° 0 mm 2 m/s 671 mmHg 21%
    17:00 +30°C° 0 mm 2 m/s 671 mmHg 24%
    18:00 +28°C° 0 mm 2 m/s 671 mmHg 27%
    19:00 +26°C° 0 mm 1 m/s 672 mmHg 29%
    20:00 +26°C° 0 mm 2 m/s 672 mmHg 30%
    21:00 +25°C° 0 mm 2 m/s 672 mmHg 31%
    22:00 +25°C° 0 mm 2 m/s 672 mmHg 32%
    23:00 +25°C° 0 mm 2 m/s 672 mmHg 32%

    24 Iunie, Duminică

    Timp Temperatura Precipitaţii Vânt Presiune Umiditate
    00:00 +25°C° 0 mm 3 m/s 671 mmHg 32%
    01:00 +25°C° 0 mm 3 m/s 671 mmHg 31%
    02:00 +25°C° 0 mm 3 m/s 671 mmHg 32%
    03:00 +24°C° 0 mm 3 m/s 671 mmHg 32%
    04:00 +24°C° 0 mm 3 m/s 671 mmHg 33%
    05:00 +24°C° 0 mm 2 m/s 671 mmHg 35%
    06:00 +23°C° 0 mm 2 m/s 672 mmHg 37%
    07:00 +23°C° 0 mm 2 m/s 672 mmHg 39%
    08:00 +25°C° 0 mm 2 m/s 673 mmHg 35%
    09:00 +27°C° 0 mm 3 m/s 673 mmHg 31%
    10:00 +29°C° 0 mm 3 m/s 673 mmHg 27%
    11:00 +31°C° 0 mm 3 m/s 673 mmHg 25%
    12:00 +32°C° 0 mm 2 m/s 673 mmHg 22%
    13:00 +35°C° 0 mm 2 m/s 672 mmHg 20%
    14:00 +34°C° 0 mm 2 m/s 672 mmHg 20%
    15:00 +34°C° 0 mm 2 m/s 671 mmHg 21%
    16:00 +32°C° 0 mm 2 m/s 671 mmHg 21%
    17:00 +30°C° 0 mm 1 m/s 671 mmHg 24%
    18:00 +28°C° 0 mm 1 m/s 671 mmHg 28%
    19:00 +25°C° 0 mm 1 m/s 671 mmHg 31%
    20:00 +25°C° 0 mm 1 m/s 671 mmHg 32%
    21:00 +24°C° 0 mm 1 m/s 671 mmHg 33%
    22:00 +23°C° 0 mm 1 m/s 671 mmHg 34%
    23:00 +23°C° 0 mm 1 m/s 671 mmHg 36%
    Arată mai mult